AirNav   Air Wisconsin pilot careers
 
 1420 users online  

48X Airport Manatee
Palmetto, Florida, USA

GOING TO PALMETTO?


FAA INFORMATION EFFECTIVE 18 JULY 2019

Location

FAA Identifier: 48X
Lat/Long: 27-38-33.3500N / 082-31-11.7000W
27-38.555833N / 082-31.195000W
27.6425972 / -82.5199167
(estimated)
Elevation: 27 ft. / 8 m (estimated)
Variation: 02W (1985)
From city: 7 miles NE of PALMETTO, FL
Time zone: UTC -4 (UTC -5 during Standard Time)
Zip code: 34221

Airport Operations

Airport use: Open to the public
Activation date: 05/1977
Control tower: no
ARTCC: MIAMI CENTER
FSS: SAINT PETERSBURG FLIGHT SERVICE STATION
NOTAMs facility: PIE (NOTAM-D service available)
Attendance: MON-FRI 0900-1700, ALL SAT 0900-1200
CALL AMGR FOR AFTER HRS SVC AND CHECK RY CONDITIONS 941-722-9296.
Wind indicator: yes
Segmented circle: yes
Lights: LIRL RWY 7/25 AVBL BY PHONE REQUEST 941-722-9296.

Airport Communications

CTAF: 122.9
WX ASOS at SPG (9 nm NW): 118.875 (727-821-4334)
WX ASOS at SRQ (15 nm S): 124.375 (941-355-8482)
WX AWOS-3 at TPF (17 nm N): 118.925 (813-251-6824)
WX ASOS at PIE (18 nm NW): PHONE 727-531-3456
WX ASOS at TPA (20 nm N): PHONE 813-873-7228

Nearby radio navigation aids

VOR radial/distance  VOR name  Freq  Var
SRQr014/14.3SARASOTA VOR/DME117.0005W
PIEr156/18.1ST PETERSBURG VORTAC116.4005W
LALr231/33.9LAKELAND VORTAC116.0001E

Airport Services

Fuel available: 100LL
FUEL AVBL DAILY SR-SS.
Parking: hangars and tiedowns
Airframe service: MINOR
Powerplant service: MINOR

Runway Information

Runway 7/25

Dimensions: 3120 x 100 ft. / 951 x 30 m
Surface: turf, in good condition
Runway edge lights: low intensity
Runway edge markings: RY 07 AND 25 THLDS MARKED BY THREE GREEN LGTS AND ONE BUCKET ON EACH SIDE OF RY.
RUNWAY 7  RUNWAY 25
Latitude: 27-38.496667N27-38.615000N
Longitude: 082-31.476667W082-30.913333W
Traffic pattern: rightleft
Obstructions: 38 ft. trees, 745 ft. from runway, 125 ft. left of centerline, 20:1 slope to clear
8 FT TREES 90-100 FT S OF RY CNTRLN FULL LENGTH. ACFT HANGARS 135 FT L OF CNTRLN FIRST HALF OF RY 07. ACFT PARKED 100 FT R OF CNTRLN FIRST 1/3 OF RY 25.
12 ft. brush, 235 ft. from runway, 95 ft. right of centerline, 20:1 slope to clear

Airport Ownership and Management from official FAA records

Ownership: Privately-owned
Owner: REEDER FARMS LLC
14108 U.S. HIGHWAY 41 NORTH
PALMETTO, FL 34221
Phone 941-722-9296
CONTACT PERSON: TOM REEDER: 941-722-9296
Manager: TOM REEDER
14108 U.S. HIGHWAY 41 NORTH
PALMETTO, FL 34221
Phone 941-722-9296
AIRPORT PHYSICAL ADDRESS: 14108 U.S. HIGHWAY 41 NORTH; FAX: 941-721-9067

Airport Operational Statistics

Aircraft based on the field: 55
Single engine airplanes: 39
Ultralights: 16
    
Aircraft operations: avg 136/week *
70% local general aviation
28% transient general aviation
1% military
* for 12-month period ending 13 December 2017

Additional Remarks

BIRDS, WILDLIFE AND DEER ON AND INVOF ARPT.
RY 07/25 FIRST 500 FT EAST END SOFT AFTER HEAVY SEASONAL RAINS.
RY 7/25 SPRINKLERS ACTIVE MON-THU 2000-0500.
AIRPORT CLSD TO TURBINE HELI OPS INCLUDING HOVER AND PRACTICE MANUEVERS AT NE FIELD ADJ TO RWY 7/25 EXC BELL JET RANGERS, EMERG. CALL IN ADVANCE 941-722-9296.
FOR CD CTC MIAMI ARTCC AT 305-716-1731.

Instrument Procedures

There are no published instrument procedures at 48X.

Some nearby airports with instrument procedures:

KSPG - Albert Whitted Airport (9 nm NW)
KMCF - MacDill Air Force Base (12 nm N)
KSRQ - Sarasota/Bradenton International Airport (15 nm S)
KTPF - Peter O Knight Airport (17 nm N)
KPIE - St Pete-Clearwater International Airport (18 nm NW)
KTPA - Tampa International Airport (20 nm N)
 
Loc | Ops | Rwys | IFR | FBO | Links
Com | Nav | Svcs | Stats | Notes


 
Area around 48X (Airport Manatee)
 
Road maps at: MapQuest Bing Google
 
Aerial photo
WARNING: Photo may not be current or correct
Aerial photo of 48X (Airport Manatee)
Photo courtesy of PhotosFromTheAir.com
Photo taken 26-Apr-2012
looking northeast.

Do you have a better or more recent aerial photo of Airport Manatee that you would like to share? If so, please send us your photo.

 
Sectional chart

 
Airport distance calculator
Flying to Airport Manatee? Find the distance to fly.

From to 48X

Sunrise and sunset
Times for 19-Jul-2019
 Local
(UTC-4)
 Zulu
(UTC)
Morning civil twilight06:2110:21
Sunrise06:4710:47
Sunset20:2500:25
Evening civil twilight20:5100:51

Current date and time
Zulu (UTC)  19-Jul-2019 13:50:48
Local (UTC-4)  19-Jul-2019 09:50:48
 
METAR
KSPG 
10nm NW 
191253Z 17007KT 10SM CLR 28/24 A3009 RMK AO2 SLP187 T02780239
KMCF 
12nm N 
191256Z AUTO 12004KT 10SM CLR 28/24 A3010 RMK AO2 SLP196 T02790239 FZRANO $
KSRQ 
15nm S 
191253Z 14008KT 10SM CLR 27/24 A3008 RMK AO2 SLP186 T02720239
KTPF 
17nm N 
191335Z AUTO 18003KT 10SM OVC110 28/25 A3012 RMK AO2
KPIE 
19nm NW 
191253Z 12004KT 10SM CLR 28/24 A3010 RMK AO2 SLP193 T02780239
KTPA 
19nm N 
191253Z 20003KT 10SM FEW020 FEW250 28/23 A3011 RMK AO2 SLP195 TCU DSNT NW T02780233
TAF
KMCF 
12nm N 
190900Z 1909/2015 VRB06KT 9999 FEW030 QNH3001INS BECMG 1914/1915 12006KT 9999 SCT050 QNH3007INS TEMPO 1918/1922 12010G15KT 9000 -TSRA SCT030CB BKN060 BECMG 1923/1924 VRB06KT 9999 FEW030 QNH3000INS BECMG 2013/2014 14006KT 9999 SCT080 QNH3002INS TX30/1920Z TN25/1910Z
KSRQ 
15nm S 
191126Z 1912/2012 10004KT P6SM FEW030 SCT250 FM191500 14006KT P6SM FEW030 SCT200 FM191800 25007KT P6SM VCTS SCT030CB BKN200 FM192100 29007KT P6SM VCTS SCT030CB BKN250 FM200200 VRB04KT P6SM FEW030 SCT200
KPIE 
19nm NW 
191126Z 1912/2012 13005KT P6SM FEW030 SCT250 FM191500 11005KT P6SM FEW030 SCT200 FM191800 06005KT P6SM VCTS SCT040CB SCT110 BKN200 FM192100 31007KT P6SM VCTS SCT040CB BKN200 FM200100 VRB03KT P6SM SCT030 SCT250
KTPA 
19nm N 
191126Z 1912/2018 VRB03KT P6SM FEW030 SCT250 FM191500 17005KT P6SM FEW035 SCT200 FM191800 22006KT P6SM VCTS SCT030CB SCT080 BKN200 FM192100 28006KT P6SM VCTS SCT030CB BKN100 BKN200 FM200100 VRB04KT P6SM SCT030 SCT200 FM201500 18005KT P6SM FEW200
NOTAMs
Click for the latest NOTAMs
NOTAMs are issued by the DoD/FAA and will open in a separate window not controlled by AirNav.

 

 
 

FBO, Fuel Providers, and Aircraft Ground Support

  
 Business Name 
 
 Contact 
 
 Services / Description 
 
Fuel Prices
 
Comments
  
Airport Manatee 941-722-9296
[web site]
[email]
Airport management, Aviation fuel, Aircraft parking (ramp or tiedown), Hangars, Hangar leasing / sales, Passenger terminal and lounge, Flight training, ...

More info about Airport Manatee
independent
100LL
SS $4.14 
 Updated 09-Jul-2019
 
   2 read write
SS=Self service
Update Fuel Prices
 

Would you like to see your business listed on this page?

 If your business provides an interesting product or service to pilots, flight crews, aircraft, or users of the Airport Manatee, you should consider listing it here.  To start the listing process, click on the button below
 
Add a business
 

Other Pages about Airport Manatee

airportmanatee48x.com
 
Update a link
 
Copyright © AirNav, LLC. All rights reserved. Privacy Policy  Contact